Vorticity
4 5 7 9 8 6 6 7 8 7 6 4 4 3 4 6 5 5 7 6 6 6 5 6 7 6 6 7 8 9 8 6 6 6 5 5 6 6 6 7 7 7 7 8 9 9 8 7 7 7 7 7 7 6 6 7 8 8 8 8 8 8 9 8 8 9 9 10 9 7 7 7 7 7 5 5 6 7 7 7 6 6 5 5 5
4 4 6 7 9 9 7 6 7 8 8 7 6 5 4 5 6 6 6 5 6 7 6 6 7 7 7 7 7 9 9 7 6 6 6 6 6 6 5 5 5 4 4 6 8 9 9 9 9 9 8 8 7 7 6 7 7 6 7 6 6 7 7 6 6 6 6 7 8 7 6 6 6 6 7 8 8 7 6 5 5 5 5 7 8
6 6 6 7 8 8 8 8 7 7 8 8 6 6 5 5 6 8 7 4 5 6 6 7 7 5 6 7 7 8 9 9 8 6 7 8 7 7 6 6 6 5 5 5 5 6 7 8 8 8 8 8 8 7 6 7 7 7 7 7 7 7 7 7 7 6 7 7 7 6 6 7 7 7 7 8 8 8 7 7 6 6 6 6 6
8 9 8 7 6 6 7 10 10 8 7 7 6 7 7 6 7 8 8 6 5 5 5 6 7 6 6 6 6 6 6 9 11 9 8 7 6 6 5 6 7 6 6 5 6 6 6 6 6 6 7 7 8 9 8 8 8 8 8 9 9 8 7 7 7 6 8 6 5 5 6 7 7 6 7 7 7 7 7 8 8 6 6 6 6
10 11 11 9 7 7 6 6 8 8 8 7 7 6 6 7 8 7 7 7 5 4 5 5 5 6 7 6 6 6 7 9 10 9 7 7 8 8 7 6 6 7 8 8 7 8 7 7 6 5 5 5 6 7 8 7 8 8 9 8 9 10 8 7 7 6 6 5 4 6 6 6 6 6 6 6 7 8 7 8 9 8 7 6 6
7 8 10 9 9 11 11 9 9 9 11 10 8 8 7 6 7 6 7 7 8 8 8 6 5 4 5 5 5 6 6 7 7 7 7 6 8 8 8 7 6 6 7 8 8 8 8 8 7 6 6 6 6 6 6 6 6 6 7 7 8 8 6 5 6 6 5 4 5 6 6 5 5 5 5 5 6 7 7 8 9 10 9 8 9
6 7 5 4 7 11 14 13 9 6 9 10 8 8 8 6 5 6 6 7 9 10 10 8 7 6 5 5 5 5 5 5 5 5 6 6 6 6 7 7 6 5 5 5 6 5 5 6 6 6 7 6 7 7 6 6 7 6 6 6 6 7 5 5 5 5 5 5 4 5 5 5 5 5 4 5 6 5 6 7 8 9 11 10 9
8 10 4 1 5 12 15 10 2 1 7 12 11 9 8 7 6 6 6 7 8 7 7 7 8 8 7 6 6 5 5 5 6 6 6 6 6 5 6 6 6 6 5 6 6 6 6 6 6 7 7 6 7 8 7 7 7 7 6 4 4 6 6 4 3 4 4 3 3 4 5 5 5 6 6 7 7 5 5 6 7 8 9 9 9
11 15 11 8 9 9 9 5 1 3 7 9 10 11 10 9 9 9 8 8 7 6 6 6 7 7 8 7 5 5 5 5 6 7 7 6 6 6 6 6 7 7 8 9 9 8 7 7 8 8 5 4 6 8 7 6 5 6 7 6 6 6 5 3 3 4 3 3 4 5 6 6 6 7 7 7 7 6 5 6 6 6 7 8 8
15 16 11 12 10 -0 -3 1 6 9 8 6 7 9 10 11 11 11 11 9 8 8 7 7 8 8 8 8 7 6 5 4 4 6 6 6 6 5 5 6 6 6 7 8 8 8 8 7 9 9 5 3 5 5 5 4 4 6 7 7 6 6 6 5 4 5 4 4 6 6 7 7 7 7 8 8 8 8 8 8 7 6 6 6 6
11 6 -2 -2 -3 -6 -1 6 9 8 2 -0 3 6 8 11 12 12 11 11 10 10 10 9 9 9 9 10 9 8 6 5 5 4 4 5 6 5 6 7 7 5 5 5 5 6 7 6 7 7 6 5 4 3 3 4 4 6 6 5 5 5 5 5 5 6 6 6 7 8 8 8 8 8 9 9 10 9 9 9 9 8 8 6 6
8 6 4 1 -3 0 5 6 8 8 1 -3 2 6 7 9 11 12 11 12 12 11 11 10 10 10 10 9 10 10 8 7 6 5 3 4 6 5 5 5 5 6 5 6 5 4 3 4 6 8 8 7 6 4 4 5 5 5 7 6 5 5 4 5 6 7 7 7 8 9 9 9 8 9 9 8 8 8 8 8 7 6 6 5 5
4 9 14 11 9 10 3 -0 7 10 1 -5 -3 2 5 6 6 7 7 11 14 13 12 11 11 11 10 10 9 7 5 7 8 7 5 5 5 5 6 6 6 7 7 5 4 3 2 2 3 5 6 7 8 7 6 5 5 7 8 6 5 5 6 6 8 8 6 6 8 9 9 9 9 8 7 7 6 5 6 6 6 5 5 5 5
8 15 20 17 14 11 8 10 15 12 5 3 1 1 3 4 5 4 4 6 10 13 13 12 11 11 11 12 12 10 9 9 8 7 8 9 7 6 6 6 5 6 6 6 5 3 4 5 4 4 4 4 5 6 6 7 9 10 9 6 4 5 7 7 8 7 6 6 7 8 8 7 6 5 4 4 4 4 5 5 5 5 6 7 7
15 21 33 33 18 5 7 15 14 6 5 7 7 5 4 4 4 4 5 5 5 7 9 8 9 10 10 10 10 11 11 9 7 7 9 11 11 10 10 8 6 5 5 6 5 3 3 5 4 2 4 6 4 3 4 5 5 6 8 9 8 8 8 7 7 6 6 7 6 6 6 5 4 4 4 3 4 4 5 4 4 4 5 6 7
10 13 29 38 26 10 8 12 9 7 10 12 12 9 4 4 7 5 3 4 5 5 5 5 4 4 4 4 5 6 6 5 3 4 8 14 14 13 13 12 9 6 5 5 5 3 3 5 4 2 4 6 6 5 5 3 -0 0 4 7 9 11 10 8 7 7 7 7 7 6 5 4 3 4 5 6 6 5 4 4 3 3 4 4 5
17 15 17 22 23 19 17 17 14 14 17 18 22 23 18 13 13 12 7 4 3 4 4 3 4 6 3 -0 0 3 3 5 6 4 5 9 7 4 8 15 15 11 9 9 9 8 7 7 8 10 10 9 6 6 6 5 2 2 3 4 5 8 8 7 7 8 7 6 7 7 6 5 4 5 6 6 6 6 5 5 5 4 3 3 4
13 15 13 11 13 14 13 10 8 11 13 10 14 27 32 23 15 14 12 7 5 5 4 2 5 14 16 10 7 7 6 5 6 6 3 2 1 1 6 9 7 5 5 7 7 7 8 7 6 9 11 9 7 8 9 8 7 5 4 4 5 5 5 4 5 6 5 4 5 6 7 6 6 5 5 6 6 6 6 6 5 5 4 4 5
-3 1 7 7 8 14 14 9 5 10 14 10 7 15 23 22 19 18 16 14 12 11 11 10 8 13 18 16 14 19 23 17 8 5 5 0 -3 1 5 3 1 1 3 2 0 1 3 3 2 4 6 7 8 10 12 10 8 6 5 4 5 5 5 4 4 4 4 4 5 6 6 6 5 4 4 5 6 5 5 5 5 6 6 6 7
12 9 5 1 0 4 5 5 6 5 6 9 10 9 9 11 15 17 16 17 17 14 14 12 6 6 13 17 15 18 29 29 16 7 6 3 1 2 2 -3 -4 -1 -0 -0 2 5 5 5 6 5 5 7 7 7 10 12 9 6 6 5 5 5 5 6 5 5 5 6 5 5 5 5 4 4 5 5 5 6 6 7 7 7 7 7 8
7 5 2 2 2 2 1 3 7 5 2 4 7 7 7 7 8 8 9 11 12 11 10 10 6 3 5 9 10 12 19 27 26 19 12 7 5 1 -3 2 12 15 11 8 7 8 8 8 9 6 4 7 10 9 11 13 12 9 8 8 7 6 6 6 5 4 4 5 3 2 4 5 5 5 6 7 7 8 8 8 7 7 7 7 8
2 10 12 13 12 12 10 8 7 6 5 5 4 4 6 7 7 8 8 9 9 9 10 11 11 9 5 5 7 11 14 19 24 28 26 20 13 6 7 18 25 22 22 26 25 22 21 18 14 13 12 11 12 12 13 14 14 14 13 11 10 9 7 6 5 3 4 5 4 3 4 5 6 6 6 7 7 7 7 6 5 5 5 6 6
14 15 14 13 9 8 8 7 7 5 5 6 6 6 5 5 6 6 6 7 7 7 8 10 10 11 12 11 7 4 4 4 4 13 25 28 25 21 19 19 16 17 27 35 32 30 33 31 26 27 29 23 16 14 14 15 17 18 17 15 16 16 13 9 6 4 5 9 10 7 6 6 5 4 4 6 7 6 6 5 5 4 4 4 4
12 8 8 8 6 4 4 5 5 5 6 5 5 6 5 6 7 6 5 6 6 5 6 7 8 9 10 11 9 6 7 6 2 4 11 11 8 8 6 5 13 22 18 8 3 6 11 14 15 22 31 37 39 36 30 27 26 22 18 16 16 18 20 18 14 8 6 9 11 10 10 10 8 7 8 8 7 6 6 6 4 3 3 4 5
5 5 5 5 6 6 5 5 6 6 7 7 6 5 5 4 5 5 6 6 5 6 5 4 5 7 8 9 11 12 11 11 9 10 11 7 5 9 9 9 17 18 5 -2 3 6 4 5 6 8 13 20 24 22 17 20 24 21 18 17 17 18 22 26 26 20 10 5 5 6 7 9 9 10 10 7 6 5 5 5 5 7 10 13 15
2 1 0 2 5 5 4 6 6 5 5 6 7 8 7 6 5 5 6 6 6 6 7 6 6 7 7 7 9 9 9 10 10 9 10 10 9 11 12 11 10 7 2 4 7 6 10 14 4 -6 -2 6 5 1 2 12 25 33 35 33 28 22 21 24 28 28 19 10 6 4 4 4 4 3 3 5 4 1 1 6 13 17 20 21 22
1 1 0 0 2 4 4 4 5 5 5 5 6 8 9 9 7 5 4 5 6 5 6 7 7 7 7 7 6 7 8 9 10 9 10 11 11 10 10 9 6 1 1 5 6 5 10 7 -9 -12 6 16 12 8 5 4 9 18 24 22 15 11 10 11 15 19 20 19 16 12 10 10 7 4 4 6 5 2 6 15 19 17 14 12 11
-1 -1 -1 1 3 4 3 3 4 5 4 3 4 5 6 8 10 10 7 5 4 4 5 6 6 7 7 6 6 7 6 7 8 9 8 9 9 11 13 14 12 8 3 3 3 -1 -4 -6 -5 8 21 17 6 6 6 -2 -7 -3 4 7 7 8 8 7 7 9 11 14 18 19 19 20 20 17 15 14 14 16 19 19 13 8 6 6 5
2 1 1 4 5 6 7 7 8 6 4 2 3 3 3 4 6 9 10 10 7 5 4 4 4 5 5 5 5 6 6 6 6 7 7 7 7 7 9 11 13 14 10 5 3 1 2 7 14 20 17 6 2 7 9 3 -2 -1 2 5 7 9 9 6 6 7 7 9 14 16 14 14 15 17 17 19 21 20 16 10 7 6 8 7 7
11 10 9 8 7 9 11 12 14 13 8 4 3 2 3 4 4 4 7 10 11 11 8 6 5 4 4 4 4 4 5 5 5 4 5 5 5 5 6 6 7 9 10 10 10 10 14 18 19 17 11 5 5 6 2 -3 -3 -1 2 5 5 6 7 5 4 5 6 8 12 15 15 14 14 15 16 15 12 7 4 3 4 4 4 5 5
15 17 18 17 15 13 12 13 14 15 11 8 6 4 3 3 3 3 3 4 8 11 12 12 10 8 6 6 5 5 5 4 5 5 4 4 4 4 4 5 5 6 7 9 9 9 10 10 8 6 4 2 3 1 -4 -5 -1 4 7 9 8 6 6 6 6 6 6 7 9 11 14 15 13 11 8 4 1 0 1 2 3 3 4 5 5
7 10 13 15 16 16 15 13 12 10 9 10 9 8 7 5 3 2 2 3 5 9 11 12 13 13 11 10 9 8 7 6 6 6 5 6 6 5 5 5 6 6 6 7 7 7 6 3 0 1 2 4 6 6 4 6 9 11 11 11 10 9 8 7 8 8 8 9 10 11 12 11 9 6 4 2 2 3 4 4 5 6 7 6 5
9 8 7 7 9 10 11 11 11 10 10 9 8 7 7 7 6 5 3 1 2 7 11 10 8 8 10 9 8 9 9 8 8 7 7 7 8 7 7 6 6 6 6 6 6 6 5 5 4 4 4 4 5 6 8 8 9 9 9 8 8 9 8 8 9 8 8 8 9 9 9 8 7 6 5 5 5 5 4 5 5 4 4 4 3
13 12 10 10 9 8 8 8 9 9 10 11 10 8 6 6 8 8 8 6 3 4 9 9 3 0 2 3 5 7 8 9 9 8 7 6 7 7 7 7 6 7 6 6 7 7 7 7 7 6 5 5 5 5 5 6 6 7 7 7 7 7 7 7 7 7 6 6 5 5 5 4 5 5 4 4 4 4 3 3 2 2 3 3 3
12 12 12 12 11 10 10 10 9 9 10 10 10 9 9 8 7 5 8 10 7 5 8 10 3 -3 -3 -0 2 4 5 7 9 10 11 10 9 7 6 7 7 7 7 6 6 5 5 6 6 7 7 7 7 6 5 5 5 5 5 6 7 6 6 6 5 4 5 4 3 3 3 2 2 2 2 2 2 2 2 2 2 2 3 3 3
13 13 13 13 12 12 12 11 11 11 11 10 10 11 11 10 8 7 7 9 11 10 10 11 5 -2 -4 -1 3 6 7 6 5 6 7 9 10 10 9 8 7 6 6 5 5 5 5 4 3 4 4 4 5 6 5 4 3 3 3 3 3 2 2 3 3 3 3 3 3 2 2 2 2 1 2 2 2 1 1 1 1 1 1 1 2
11 11 11 12 14 14 13 13 13 11 10 9 10 12 12 10 8 6 4 8 16 20 18 14 9 2 -4 -4 1 7 10 9 8 7 6 5 6 8 9 9 8 7 6 5 4 5 5 6 6 6 6 6 5 5 5 5 5 4 4 3 2 2 2 1 1 1 1 0 1 1 1 2 2 1 1 1 1 1 0 0 1 2 2 2 4
8 9 8 9 10 11 12 14 14 13 13 11 9 10 12 12 10 7 2 1 8 16 19 19 15 5 -3 -4 1 5 7 9 9 9 8 8 7 6 7 7 8 8 9 8 8 7 7 7 7 7 7 7 8 8 9 9 9 8 8 7 6 6 7 6 6 5 5 4 4 4 4 5 5 5 6 7 7 7 8 8 9 9 9 9 9
7 7 7 8 8 8 8 9 10 12 13 13 12 11 10 10 12 12 8 4 2 5 10 16 17 14 9 7 7 6 6 7 8 7 7 8 8 7 7 7 6 7 8 8 8 9 9 8 7 7 7 7 7 7 7 7 8 9 9 9 9 9 10 10 10 10 11 11 11 10 10 10 10 10 9 9 9 9 9 9 9 9 9 9 8
9 8 7 8 8 9 9 9 10 10 11 12 13 14 14 14 14 14 14 13 11 9 8 10 13 18 20 21 20 17 12 8 6 5 6 7 8 8 6 5 6 6 7 7 7 7 8 8 9 9 9 9 9 8 7 6 6 6 6 6 7 7 6 7 7 7 7 8 7 7 7 7 7 7 7 6 6 7 6 6 6 6 6 6 5
15 14 13 11 8 8 8 8 9 11 11 10 9 8 8 10 11 12 13 15 16 15 15 13 11 10 10 11 15 19 21 19 15 12 9 10 12 12 8 5 5 6 6 6 6 6 6 6 7 8 8 9 9 9 9 9 8 8 8 8 8 7 6 6 6 6 5 5 5 6 6 6 7 8 8 9 10 10 10 10 10 10 10 11 10
12 13 14 15 15 13 11 9 7 7 8 10 12 11 8 7 8 8 8 9 11 12 13 14 14 13 12 10 9 10 13 16 18 18 17 16 16 16 13 9 8 9 9 9 9 9 8 8 8 8 8 8 7 8 8 9 9 9 9 9 9 9 9 9 8 8 8 8 8 9 9 9 9 10 10 11 11 11 11 11 11 11 11 11 12
8 9 9 11 13 14 15 15 15 13 12 11 10 9 8 7 8 10 9 8 8 9 8 7 7 8 9 11 11 11 11 11 11 12 13 14 14 14 13 12 10 9 9 9 10 10 10 9 8 8 8 8 8 8 7 7 8 8 9 10 10 10 10 10 10 10 10 9 10 10 10 10 10 10 9 9 9 9 9 9 9 9 9 8 9
10 10 10 9 9 10 12 14 16 19 21 21 19 17 14 9 5 5 7 6 5 6 9 11 10 9 8 7 7 8 10 11 12 11 10 10 11 12 13 13 13 12 11 10 10 10 11 11 11 12 12 12 12 11 10 9 9 9 9 9 9 9 9 9 9 10 9 9 10 10 10 10 10 9 9 9 9 9 9 8 8 8 8 8 8
11 11 11 11 10 9 9 11 10 9 10 11 12 16 21 24 21 16 14 13 10 6 4 5 6 7 9 8 7 7 7 7 8 10 10 10 10 10 10 12 13 13 14 14 13 13 13 13 13 13 13 13 14 15 14 13 12 11 11 11 11 10 11 10 10 10 10 10 10 10 10 10 10 9 9 9 9 9 9 9 9 9 9 9 10
13 13 13 13 11 10 12 14 13 7 1 -3 -4 -3 4 10 12 9 10 17 23 22 16 11 8 6 6 6 7 8 10 10 8 7 7 6 5 5 5 6 7 8 9 10 10 11 12 13 13 14 13 12 12 12 12 13 13 13 13 13 12 12 12 11 11 11 11 10 11 11 10 10 10 10 10 10 10 10 10 10 10 10 10 10 10
16 16 16 15 15 14 13 14 14 13 12 9 8 11 12 9 5 7 11 19 27 30 27 22 16 11 7 7 6 6 8 11 12 12 12 10 9 7 5 4 4 4 4 4 4 4 4 4 5 7 8 9 10 10 10 11 11 11 11 11 11 11 11 10 11 11 11 10 10 10 10 10 10 10 10 10 9 9 10 10 10 10 10 10 10
20 20 19 18 17 16 16 15 15 21 30 33 30 26 20 13 17 29 34 29 25 27 29 30 30 27 23 20 18 17 15 13 13 13 13 13 12 11 10 9 9 8 8 7 7 6 5 4 4 3 3 4 4 5 5 6 6 7 8 8 9 9 9 10 11 11 10 10 10 10 10 10 10 10 11 11 11 11 11 11 11 11 11 11 11
22 22 21 21 20 18 19 16 6 -1 5 16 21 19 13 6 8 16 18 11 6 9 12 13 17 20 21 21 20 19 18 18 18 18 18 18 17 15 13 11 10 9 10 11 12 12 10 9 8 7 7 7 7 7 6 6 6 6 7 7 7 7 8 9 10 11 11 11 11 11 11 11 11 11 11 11 10 11 11 11 11 11 11 11 10
23 22 21 22 22 20 21 24 17 1 -9 -8 -1 9 18 20 13 3 -5 -8 -7 -5 -7 -10 -9 -6 -3 -0 0 -1 -1 3 8 10 12 14 16 16 16 14 13 12 12 12 14 15 15 15 15 14 13 13 13 13 13 12 12 11 10 10 10 10 10 9 9 9 10 10 11 11 11 11 11 11 11 11 11 11 11 11 11 11 11 11 12
18 17 16 19 20 19 18 22 24 20 11 2 -4 -4 4 13 16 13 8 5 4 3 1 2 5 8 9 9 9 7 5 6 7 6 5 6 7 8 10 12 14 15 15 13 11 12 12 13 13 13 12 12 13 14 15 16 16 16 16 16 16 16 16 15 15 14 13 12 12 12 13 13 13 13 13 13 13 14 13 13 13 13 12 12 13
Height
5928 5929 5931 5932 5933 5934 5935 5936 5937 5938 5939 5940 5941 5942 5943 5944 5945 5945 5946 5946 5947 5948 5948 5949 5949 5950 5950 5950 5950 5951 5951 5951 5952 5952 5952 5952 5952 5953 5953 5953 5953 5953 5953 5953 5953 5953 5953 5953 5953 5953 5953 5953 5953 5953 5953 5953 5953 5953 5952 5952 5951 5951 5951 5950 5950 5950 5950 5950 5950 5950 5949 5949 5949 5949 5949 5949 5948 5948 5948 5948 5947 5947 5947 5946 5946
5925 5927 5928 5930 5931 5932 5934 5935 5936 5937 5938 5939 5939 5940 5942 5942 5943 5944 5944 5945 5946 5946 5947 5947 5948 5949 5949 5950 5950 5950 5950 5950 5951 5951 5951 5951 5951 5951 5952 5952 5952 5952 5952 5952 5952 5952 5952 5953 5953 5953 5953 5953 5952 5952 5952 5952 5952 5952 5952 5952 5951 5951 5951 5950 5950 5950 5950 5950 5950 5950 5950 5950 5949 5949 5949 5949 5949 5948 5948 5947 5947 5947 5946 5946 5946
5922 5924 5925 5927 5929 5930 5932 5933 5934 5935 5936 5937 5938 5938 5939 5940 5941 5942 5943 5944 5944 5945 5946 5946 5947 5947 5948 5948 5949 5949 5949 5949 5949 5949 5949 5949 5949 5950 5951 5951 5951 5951 5952 5951 5951 5951 5952 5952 5952 5953 5952 5952 5952 5952 5951 5951 5952 5952 5952 5952 5952 5951 5951 5950 5950 5950 5950 5950 5950 5950 5950 5950 5949 5949 5949 5949 5948 5948 5947 5947 5946 5946 5946 5945 5945
5919 5921 5923 5924 5926 5928 5929 5931 5932 5933 5934 5935 5936 5937 5938 5939 5940 5941 5941 5942 5943 5943 5944 5945 5946 5946 5946 5947 5947 5948 5948 5948 5948 5948 5948 5948 5948 5949 5949 5950 5950 5951 5951 5951 5951 5951 5951 5951 5951 5951 5952 5951 5951 5951 5951 5951 5951 5951 5951 5952 5952 5951 5950 5950 5950 5949 5949 5949 5950 5950 5950 5950 5949 5949 5948 5948 5947 5947 5946 5946 5946 5945 5945 5944 5944
5917 5919 5920 5922 5924 5926 5927 5928 5930 5931 5932 5933 5934 5935 5936 5937 5938 5939 5939 5940 5941 5942 5943 5943 5944 5945 5945 5945 5946 5946 5946 5947 5947 5947 5947 5947 5947 5948 5948 5948 5949 5950 5950 5950 5950 5950 5950 5950 5950 5950 5950 5950 5951 5951 5950 5950 5950 5950 5951 5951 5951 5951 5950 5950 5949 5949 5949 5949 5949 5949 5949 5949 5948 5948 5947 5947 5946 5946 5946 5946 5945 5945 5944 5944 5943
5915 5916 5917 5919 5921 5923 5925 5927 5928 5929 5929 5930 5931 5932 5933 5934 5935 5936 5937 5938 5939 5940 5941 5941 5942 5943 5944 5944 5945 5945 5945 5945 5945 5946 5946 5946 5946 5946 5947 5947 5948 5948 5949 5949 5949 5949 5949 5950 5949 5949 5949 5950 5950 5950 5950 5950 5949 5949 5950 5950 5950 5950 5949 5949 5949 5949 5949 5949 5948 5948 5948 5947 5947 5947 5946 5946 5946 5945 5945 5944 5944 5944 5944 5943 5943
5912 5913 5915 5917 5919 5920 5922 5923 5925 5926 5927 5928 5929 5929 5930 5931 5932 5933 5934 5935 5937 5938 5938 5939 5940 5941 5942 5943 5943 5944 5944 5944 5944 5944 5944 5944 5944 5945 5945 5946 5946 5947 5947 5947 5948 5948 5948 5949 5948 5948 5948 5948 5948 5949 5949 5949 5949 5949 5949 5949 5948 5948 5948 5948 5948 5948 5948 5948 5948 5948 5947 5947 5946 5946 5945 5945 5944 5944 5943 5943 5943 5943 5943 5943 5942
5909 5911 5913 5914 5916 5917 5918 5919 5921 5924 5925 5926 5926 5927 5928 5928 5929 5930 5931 5932 5934 5935 5935 5936 5937 5938 5939 5940 5941 5942 5942 5943 5943 5943 5943 5943 5943 5943 5943 5944 5945 5945 5945 5946 5946 5946 5946 5946 5946 5946 5946 5946 5946 5947 5947 5947 5948 5948 5948 5948 5947 5947 5947 5947 5947 5947 5947 5947 5947 5947 5946 5946 5945 5945 5944 5944 5943 5942 5941 5941 5941 5941 5941 5941 5941
5906 5908 5910 5912 5913 5914 5916 5917 5918 5920 5922 5923 5924 5925 5926 5927 5927 5928 5929 5930 5931 5932 5933 5934 5935 5935 5936 5936 5938 5939 5940 5940 5941 5942 5942 5942 5942 5942 5942 5943 5944 5944 5944 5944 5944 5944 5944 5944 5944 5944 5944 5944 5944 5945 5945 5945 5946 5946 5946 5946 5946 5946 5946 5946 5946 5946 5946 5946 5945 5945 5945 5945 5944 5944 5943 5942 5942 5941 5940 5940 5939 5939 5939 5939 5940
5904 5905 5907 5908 5910 5912 5914 5914 5916 5917 5919 5920 5921 5922 5923 5924 5925 5926 5927 5928 5930 5931 5932 5933 5933 5934 5934 5935 5935 5936 5936 5937 5937 5938 5939 5940 5940 5940 5941 5942 5943 5942 5942 5942 5942 5942 5942 5943 5943 5943 5942 5942 5942 5943 5943 5943 5944 5944 5944 5944 5944 5944 5944 5944 5944 5944 5944 5944 5944 5944 5944 5943 5943 5942 5942 5941 5941 5940 5940 5939 5939 5938 5938 5937 5938
5904 5906 5906 5907 5908 5909 5911 5912 5913 5915 5916 5917 5918 5919 5920 5921 5922 5923 5924 5926 5927 5929 5930 5930 5931 5932 5932 5933 5933 5934 5934 5934 5934 5935 5937 5937 5938 5938 5939 5941 5941 5940 5939 5939 5939 5940 5941 5942 5941 5941 5941 5941 5941 5941 5942 5942 5942 5942 5942 5942 5942 5942 5942 5943 5942 5942 5942 5942 5942 5942 5942 5942 5941 5941 5941 5940 5940 5940 5939 5939 5938 5938 5937 5936 5936
5902 5904 5905 5905 5905 5905 5906 5908 5909 5911 5913 5914 5915 5916 5917 5919 5920 5921 5922 5924 5925 5926 5927 5928 5928 5929 5930 5930 5931 5931 5931 5932 5932 5933 5934 5934 5935 5936 5938 5938 5938 5937 5937 5937 5937 5937 5938 5939 5939 5939 5938 5939 5939 5939 5940 5940 5940 5940 5940 5940 5940 5940 5940 5940 5940 5940 5940 5940 5940 5940 5939 5939 5939 5939 5939 5939 5939 5939 5938 5938 5937 5936 5936 5935 5935
5897 5899 5901 5902 5902 5902 5903 5904 5906 5907 5909 5911 5912 5913 5914 5916 5917 5918 5920 5922 5923 5924 5924 5925 5926 5926 5927 5927 5928 5928 5928 5929 5930 5930 5931 5932 5933 5935 5935 5935 5935 5935 5936 5935 5935 5935 5935 5936 5936 5936 5936 5937 5937 5937 5938 5937 5938 5938 5938 5938 5937 5937 5937 5937 5937 5937 5937 5937 5937 5937 5937 5937 5937 5937 5937 5937 5937 5937 5937 5936 5936 5935 5935 5935 5934
5893 5895 5896 5897 5898 5899 5900 5902 5903 5905 5907 5908 5909 5910 5911 5912 5914 5915 5917 5919 5920 5921 5922 5922 5923 5923 5924 5924 5925 5925 5926 5926 5927 5927 5928 5929 5930 5932 5932 5932 5932 5933 5933 5933 5932 5932 5933 5933 5933 5933 5934 5934 5934 5935 5935 5935 5935 5936 5936 5935 5935 5935 5935 5935 5935 5935 5934 5934 5935 5935 5935 5935 5935 5935 5935 5936 5936 5936 5935 5934 5933 5933 5933 5933 5933
5889 5889 5891 5892 5894 5895 5897 5899 5900 5902 5903 5904 5905 5906 5907 5908 5910 5911 5913 5915 5917 5918 5919 5920 5920 5921 5921 5921 5922 5922 5922 5923 5923 5924 5925 5926 5927 5928 5928 5929 5929 5930 5930 5930 5930 5930 5931 5931 5931 5931 5931 5931 5931 5932 5932 5932 5932 5932 5932 5933 5933 5933 5933 5933 5932 5932 5931 5932 5932 5932 5932 5933 5933 5933 5933 5934 5934 5934 5932 5931 5931 5931 5931 5930 5930
5885 5885 5886 5889 5891 5892 5894 5896 5898 5900 5901 5901 5901 5902 5904 5905 5906 5907 5909 5911 5912 5914 5915 5916 5917 5918 5919 5920 5920 5920 5920 5920 5920 5920 5921 5923 5924 5925 5925 5925 5926 5926 5927 5927 5927 5927 5928 5928 5928 5928 5928 5928 5928 5928 5928 5928 5929 5929 5929 5930 5931 5931 5930 5930 5930 5929 5929 5929 5929 5929 5929 5930 5930 5930 5931 5932 5932 5931 5929 5929 5929 5929 5929 5928 5927
5883 5883 5884 5886 5888 5890 5891 5893 5895 5897 5898 5899 5899 5898 5899 5900 5902 5904 5905 5906 5907 5908 5910 5911 5913 5915 5916 5916 5916 5917 5917 5917 5917 5917 5918 5919 5921 5921 5922 5922 5923 5923 5923 5924 5924 5924 5924 5925 5925 5925 5925 5925 5925 5925 5925 5925 5925 5925 5926 5926 5927 5927 5927 5927 5927 5926 5926 5926 5927 5927 5926 5926 5927 5927 5928 5928 5927 5927 5927 5926 5927 5927 5927 5925 5924
5881 5881 5883 5885 5886 5888 5889 5890 5892 5894 5895 5895 5895 5894 5895 5896 5898 5900 5902 5903 5903 5904 5905 5907 5908 5910 5912 5912 5912 5912 5913 5913 5913 5913 5914 5915 5917 5918 5918 5919 5919 5920 5920 5920 5920 5920 5920 5920 5921 5921 5921 5921 5921 5921 5921 5921 5921 5921 5921 5922 5923 5923 5924 5924 5924 5923 5923 5923 5923 5923 5923 5924 5924 5924 5924 5924 5923 5923 5923 5923 5924 5924 5923 5922 5921
5878 5880 5882 5884 5885 5886 5887 5888 5890 5891 5892 5892 5893 5893 5893 5894 5896 5897 5898 5899 5900 5900 5902 5903 5903 5905 5907 5907 5907 5908 5908 5908 5908 5909 5909 5911 5912 5914 5914 5914 5915 5915 5915 5916 5916 5917 5917 5916 5916 5917 5917 5917 5917 5917 5917 5917 5917 5917 5917 5918 5918 5919 5920 5920 5920 5920 5920 5920 5920 5919 5920 5921 5921 5921 5920 5920 5920 5920 5920 5920 5921 5921 5920 5919 5918
5876 5878 5880 5882 5882 5883 5885 5886 5887 5888 5889 5890 5891 5891 5892 5893 5894 5895 5896 5897 5897 5897 5898 5899 5899 5900 5903 5904 5903 5903 5902 5902 5903 5905 5906 5906 5908 5909 5910 5911 5911 5911 5911 5911 5911 5911 5912 5912 5912 5912 5912 5912 5911 5911 5912 5912 5912 5913 5913 5914 5914 5915 5915 5916 5917 5917 5916 5916 5916 5915 5916 5917 5917 5917 5916 5916 5916 5916 5916 5916 5917 5916 5916 5915 5914
5874 5875 5877 5879 5880 5880 5882 5883 5883 5884 5886 5888 5889 5890 5890 5891 5892 5893 5894 5894 5894 5894 5894 5895 5896 5896 5898 5900 5900 5900 5900 5899 5900 5901 5902 5902 5903 5904 5905 5906 5906 5906 5906 5906 5906 5906 5907 5906 5905 5905 5906 5906 5905 5905 5906 5906 5907 5908 5908 5909 5910 5910 5911 5912 5913 5913 5912 5912 5911 5912 5913 5913 5913 5912 5912 5912 5912 5912 5912 5912 5911 5911 5911 5911 5910
5872 5873 5874 5876 5877 5878 5879 5880 5880 5882 5884 5885 5886 5887 5888 5889 5890 5890 5891 5892 5892 5891 5892 5892 5893 5893 5895 5896 5897 5896 5896 5896 5896 5896 5898 5898 5899 5900 5900 5901 5901 5902 5901 5901 5901 5901 5900 5899 5898 5899 5900 5900 5900 5900 5900 5901 5901 5902 5903 5904 5905 5905 5906 5907 5908 5908 5908 5908 5908 5909 5909 5909 5908 5908 5909 5909 5908 5907 5907 5906 5905 5905 5906 5906 5906
5869 5871 5872 5873 5874 5875 5876 5877 5878 5879 5880 5882 5883 5884 5885 5886 5887 5888 5888 5889 5889 5889 5889 5889 5890 5890 5891 5893 5893 5892 5892 5893 5893 5893 5894 5894 5894 5896 5896 5897 5897 5898 5897 5896 5896 5895 5895 5894 5894 5894 5895 5895 5895 5895 5895 5895 5896 5896 5897 5898 5899 5900 5901 5902 5903 5904 5904 5904 5904 5905 5905 5904 5904 5904 5905 5905 5904 5902 5901 5900 5900 5900 5901 5901 5901
5866 5868 5869 5870 5872 5872 5873 5874 5875 5876 5877 5878 5879 5881 5881 5883 5883 5884 5885 5885 5885 5885 5886 5886 5886 5886 5887 5888 5889 5888 5889 5889 5889 5890 5891 5891 5891 5892 5893 5894 5894 5894 5892 5891 5891 5891 5891 5891 5891 5891 5891 5891 5891 5892 5892 5892 5891 5892 5892 5892 5893 5894 5896 5897 5898 5900 5900 5900 5901 5901 5900 5900 5899 5899 5900 5900 5899 5898 5897 5896 5895 5895 5896 5895 5895
5862 5864 5865 5867 5868 5869 5870 5870 5871 5873 5874 5874 5875 5876 5877 5879 5880 5880 5881 5881 5881 5882 5882 5882 5882 5883 5884 5885 5885 5885 5885 5885 5886 5886 5886 5886 5887 5889 5890 5891 5891 5890 5889 5888 5888 5888 5889 5888 5888 5888 5888 5888 5889 5889 5889 5888 5887 5887 5887 5888 5889 5890 5891 5892 5893 5894 5896 5896 5896 5896 5896 5896 5895 5895 5894 5894 5894 5893 5892 5891 5891 5891 5890 5889 5889
5858 5860 5861 5862 5864 5865 5866 5866 5867 5868 5869 5870 5871 5872 5873 5875 5876 5876 5877 5877 5878 5878 5878 5878 5879 5879 5880 5881 5881 5881 5881 5881 5882 5882 5881 5882 5883 5885 5886 5887 5887 5886 5886 5885 5884 5884 5885 5885 5885 5885 5886 5887 5888 5887 5886 5885 5884 5883 5883 5885 5886 5886 5886 5887 5887 5888 5889 5890 5891 5891 5891 5891 5891 5890 5890 5889 5889 5889 5888 5887 5886 5885 5884 5883 5883
5855 5856 5857 5858 5859 5860 5861 5862 5864 5865 5866 5867 5867 5868 5869 5870 5871 5872 5872 5873 5873 5874 5874 5875 5875 5875 5876 5876 5877 5877 5878 5878 5878 5878 5878 5878 5879 5880 5881 5882 5882 5882 5883 5882 5880 5880 5881 5881 5881 5881 5882 5883 5884 5884 5883 5883 5882 5881 5881 5881 5882 5882 5882 5882 5882 5882 5883 5883 5884 5884 5885 5885 5885 5885 5885 5885 5885 5884 5884 5883 5881 5880 5879 5878 5878
5851 5852 5853 5853 5854 5856 5857 5858 5859 5861 5862 5863 5863 5864 5865 5865 5866 5867 5868 5868 5869 5869 5870 5870 5871 5871 5872 5872 5873 5873 5874 5874 5874 5875 5875 5875 5875 5875 5876 5877 5878 5878 5879 5878 5877 5877 5878 5879 5878 5878 5878 5879 5879 5879 5880 5880 5879 5878 5877 5877 5877 5877 5878 5878 5878 5877 5877 5878 5878 5878 5878 5878 5878 5879 5879 5879 5880 5880 5879 5877 5876 5875 5874 5874 5873
5846 5847 5848 5848 5849 5851 5852 5853 5854 5855 5857 5858 5858 5859 5859 5860 5861 5862 5862 5863 5864 5864 5865 5865 5866 5867 5867 5867 5868 5869 5869 5870 5870 5871 5871 5871 5871 5871 5872 5873 5873 5874 5875 5875 5874 5874 5874 5875 5874 5874 5875 5875 5875 5874 5875 5875 5874 5873 5873 5873 5873 5873 5873 5873 5873 5873 5873 5873 5873 5872 5872 5872 5872 5873 5873 5874 5874 5874 5873 5872 5871 5870 5870 5869 5869
5841 5841 5842 5842 5843 5844 5846 5847 5848 5849 5850 5852 5852 5853 5854 5855 5856 5856 5857 5857 5858 5859 5860 5860 5861 5862 5862 5862 5863 5864 5864 5865 5866 5866 5867 5867 5867 5867 5868 5868 5869 5870 5870 5871 5870 5870 5870 5870 5870 5870 5870 5870 5870 5870 5870 5869 5869 5869 5868 5868 5868 5868 5869 5869 5869 5869 5868 5868 5868 5868 5867 5867 5868 5868 5868 5868 5868 5868 5867 5867 5866 5866 5865 5866 5866
5833 5835 5836 5836 5837 5838 5839 5840 5841 5843 5844 5845 5846 5847 5848 5849 5850 5851 5851 5852 5853 5853 5854 5855 5855 5856 5857 5857 5858 5858 5859 5860 5860 5861 5862 5863 5863 5863 5863 5864 5864 5865 5865 5866 5865 5865 5865 5865 5865 5865 5865 5865 5865 5865 5865 5865 5865 5864 5864 5864 5864 5864 5864 5865 5865 5864 5864 5864 5864 5863 5863 5863 5863 5863 5863 5863 5862 5862 5862 5861 5861 5861 5861 5862 5862
5825 5827 5828 5829 5830 5831 5832 5833 5835 5836 5837 5838 5839 5840 5842 5843 5844 5845 5846 5847 5847 5848 5848 5849 5850 5850 5851 5852 5852 5853 5853 5854 5855 5855 5856 5857 5858 5858 5858 5859 5859 5860 5860 5860 5860 5860 5860 5860 5859 5859 5860 5860 5859 5859 5860 5860 5860 5860 5859 5859 5859 5860 5860 5860 5860 5860 5860 5859 5859 5859 5858 5858 5858 5857 5857 5857 5856 5856 5855 5855 5855 5855 5856 5856 5856
5820 5821 5821 5822 5824 5825 5826 5827 5828 5829 5830 5831 5832 5833 5834 5836 5837 5838 5839 5840 5842 5842 5843 5843 5844 5845 5846 5846 5847 5847 5847 5848 5849 5850 5850 5851 5852 5852 5853 5853 5853 5854 5854 5853 5853 5854 5854 5854 5854 5854 5854 5854 5854 5854 5854 5854 5854 5854 5854 5854 5854 5855 5855 5855 5855 5855 5854 5854 5853 5853 5852 5852 5852 5851 5851 5850 5850 5849 5849 5849 5849 5850 5850 5849 5849
5814 5815 5816 5816 5817 5818 5819 5821 5822 5822 5823 5824 5824 5826 5827 5828 5830 5831 5832 5833 5835 5836 5837 5838 5838 5838 5839 5840 5841 5841 5842 5842 5843 5843 5844 5845 5846 5846 5846 5847 5847 5847 5847 5847 5847 5848 5848 5848 5848 5848 5848 5848 5848 5848 5848 5849 5849 5849 5849 5849 5849 5849 5849 5849 5849 5849 5848 5848 5847 5846 5846 5845 5845 5845 5844 5844 5843 5843 5843 5843 5843 5843 5843 5842 5841
5808 5809 5810 5810 5811 5812 5813 5814 5815 5816 5817 5817 5817 5818 5820 5821 5822 5823 5824 5826 5827 5828 5829 5830 5830 5831 5832 5833 5834 5835 5835 5836 5836 5837 5838 5838 5839 5840 5840 5841 5841 5841 5841 5841 5841 5841 5841 5842 5842 5842 5842 5843 5843 5843 5843 5843 5843 5843 5843 5843 5843 5843 5843 5843 5843 5842 5841 5841 5840 5840 5839 5839 5838 5838 5838 5838 5837 5837 5837 5837 5837 5836 5835 5834 5833
5801 5802 5802 5803 5804 5805 5806 5806 5807 5809 5809 5810 5811 5811 5812 5813 5814 5815 5817 5818 5819 5821 5821 5821 5822 5824 5825 5826 5827 5828 5828 5829 5829 5830 5831 5831 5832 5833 5834 5834 5834 5834 5834 5834 5834 5834 5834 5835 5835 5836 5836 5836 5837 5837 5837 5837 5837 5837 5837 5837 5837 5837 5837 5837 5836 5835 5834 5834 5833 5832 5832 5832 5832 5832 5832 5832 5831 5831 5830 5830 5829 5828 5827 5826 5825
5794 5795 5795 5795 5796 5797 5798 5798 5800 5801 5801 5802 5803 5804 5805 5806 5807 5808 5809 5810 5811 5812 5813 5812 5813 5816 5817 5818 5820 5821 5821 5822 5822 5823 5823 5824 5825 5826 5827 5827 5827 5827 5827 5827 5827 5827 5827 5827 5828 5828 5829 5829 5829 5829 5830 5830 5830 5830 5830 5830 5830 5830 5830 5830 5829 5828 5827 5826 5826 5825 5825 5826 5826 5825 5825 5825 5825 5824 5823 5822 5821 5820 5819 5818 5817
5788 5788 5788 5787 5788 5789 5789 5790 5791 5792 5793 5794 5795 5796 5797 5799 5800 5800 5801 5802 5803 5804 5804 5804 5805 5807 5809 5810 5812 5813 5814 5815 5815 5816 5816 5816 5817 5818 5818 5819 5819 5820 5820 5819 5819 5819 5819 5819 5820 5820 5821 5821 5821 5821 5821 5822 5822 5822 5822 5822 5822 5822 5822 5822 5821 5820 5820 5819 5819 5818 5818 5818 5817 5817 5817 5817 5817 5816 5815 5814 5813 5812 5811 5810 5808
5781 5781 5781 5781 5781 5782 5782 5782 5783 5784 5785 5786 5786 5787 5788 5789 5791 5792 5793 5794 5794 5795 5796 5796 5797 5798 5800 5801 5803 5804 5806 5807 5807 5807 5808 5809 5809 5809 5810 5810 5810 5811 5811 5811 5812 5812 5812 5812 5812 5812 5813 5813 5813 5813 5813 5813 5813 5813 5813 5814 5814 5814 5814 5813 5812 5812 5811 5811 5811 5811 5810 5810 5810 5810 5810 5809 5808 5807 5806 5805 5804 5804 5802 5801 5800
5774 5774 5774 5774 5775 5775 5775 5775 5776 5776 5777 5777 5778 5778 5779 5780 5781 5783 5785 5786 5787 5788 5788 5789 5789 5790 5791 5792 5793 5794 5795 5797 5797 5798 5799 5800 5800 5801 5801 5802 5802 5802 5802 5803 5803 5804 5804 5804 5805 5805 5805 5805 5805 5805 5805 5805 5804 5804 5804 5805 5805 5805 5805 5804 5804 5803 5802 5802 5802 5802 5802 5802 5802 5802 5801 5800 5799 5798 5797 5796 5795 5795 5793 5792 5791
5766 5766 5766 5766 5766 5767 5767 5768 5768 5769 5769 5769 5770 5770 5770 5771 5773 5775 5777 5778 5779 5780 5780 5781 5782 5782 5783 5783 5783 5784 5785 5787 5788 5788 5789 5790 5791 5792 5792 5793 5793 5794 5794 5794 5794 5795 5795 5795 5796 5796 5796 5797 5797 5796 5796 5796 5796 5796 5796 5796 5796 5796 5796 5796 5795 5794 5793 5792 5792 5792 5792 5792 5792 5792 5791 5790 5789 5789 5788 5787 5786 5785 5784 5783 5782
5758 5758 5758 5758 5758 5759 5759 5760 5760 5761 5761 5761 5762 5762 5762 5762 5765 5767 5768 5769 5770 5771 5771 5772 5773 5774 5774 5775 5775 5775 5776 5777 5779 5780 5780 5780 5781 5782 5783 5784 5784 5784 5785 5785 5786 5786 5786 5786 5787 5787 5787 5787 5787 5787 5787 5787 5787 5787 5787 5787 5787 5787 5787 5786 5786 5785 5784 5783 5782 5782 5783 5783 5782 5782 5780 5780 5779 5778 5777 5777 5776 5775 5774 5773 5772
5750 5750 5750 5750 5750 5750 5750 5751 5752 5752 5752 5752 5753 5753 5753 5755 5756 5758 5759 5760 5761 5761 5762 5763 5764 5765 5766 5766 5767 5767 5768 5769 5770 5771 5771 5771 5772 5773 5774 5774 5774 5775 5775 5776 5776 5776 5776 5777 5777 5777 5778 5778 5778 5778 5778 5777 5777 5777 5777 5777 5778 5777 5777 5776 5776 5775 5775 5774 5773 5773 5773 5773 5773 5771 5770 5769 5769 5768 5767 5766 5765 5764 5763 5762 5761
5741 5742 5741 5741 5741 5741 5742 5743 5744 5743 5742 5742 5743 5744 5746 5747 5747 5748 5750 5751 5751 5751 5752 5753 5755 5756 5757 5758 5759 5759 5760 5761 5762 5762 5763 5763 5763 5763 5764 5765 5765 5765 5765 5766 5766 5766 5767 5767 5767 5767 5768 5769 5768 5768 5769 5769 5769 5768 5768 5767 5767 5767 5767 5767 5767 5766 5765 5765 5764 5764 5764 5763 5763 5762 5761 5760 5759 5758 5757 5756 5755 5754 5753 5752 5751
5731 5732 5732 5731 5731 5732 5734 5735 5735 5734 5733 5734 5735 5737 5738 5738 5738 5739 5740 5741 5741 5741 5742 5744 5745 5746 5748 5749 5750 5750 5751 5752 5753 5754 5754 5754 5754 5754 5754 5755 5756 5756 5756 5756 5756 5757 5757 5757 5758 5759 5759 5759 5758 5758 5758 5759 5759 5759 5758 5758 5757 5757 5758 5758 5758 5757 5756 5755 5755 5754 5754 5753 5753 5752 5751 5750 5749 5748 5747 5746 5745 5745 5744 5742 5741
5721 5722 5722 5721 5721 5722 5724 5726 5727 5726 5725 5725 5727 5729 5730 5729 5729 5729 5730 5731 5732 5732 5733 5734 5736 5737 5738 5740 5741 5741 5741 5742 5743 5744 5745 5745 5745 5745 5746 5746 5747 5747 5748 5748 5748 5747 5747 5748 5748 5749 5750 5749 5749 5748 5748 5748 5749 5749 5749 5748 5748 5748 5748 5748 5748 5747 5747 5746 5745 5745 5744 5743 5743 5742 5742 5741 5739 5738 5738 5737 5736 5735 5734 5732 5731
5712 5712 5711 5711 5712 5713 5715 5716 5717 5717 5717 5717 5719 5721 5721 5721 5720 5721 5721 5722 5722 5722 5723 5724 5725 5727 5728 5730 5731 5732 5732 5732 5732 5734 5735 5736 5736 5736 5736 5736 5737 5738 5738 5738 5738 5738 5739 5739 5740 5741 5741 5740 5739 5739 5740 5740 5740 5739 5739 5738 5737 5737 5738 5738 5738 5738 5737 5736 5736 5735 5734 5733 5733 5732 5732 5731 5730 5729 5728 5727 5726 5725 5724 5723 5721
5701 5701 5701 5701 5703 5705 5706 5708 5710 5709 5709 5710 5711 5711 5712 5712 5713 5712 5712 5712 5712 5712 5713 5714 5716 5717 5719 5720 5721 5722 5722 5723 5723 5724 5725 5726 5726 5727 5727 5727 5727 5727 5727 5727 5727 5728 5730 5731 5732 5732 5731 5730 5729 5729 5730 5731 5730 5730 5729 5728 5727 5727 5728 5728 5728 5728 5727 5727 5726 5725 5724 5724 5723 5723 5722 5721 5720 5719 5718 5718 5717 5716 5715 5713 5712
5691 5691 5691 5692 5694 5696 5697 5700 5701 5701 5701 5701 5702 5703 5704 5705 5705 5704 5704 5704 5704 5705 5705 5706 5707 5708 5709 5711 5712 5713 5714 5715 5715 5715 5715 5716 5716 5717 5717 5718 5718 5718 5717 5716 5715 5717 5719 5721 5722 5722 5721 5719 5718 5719 5720 5720 5720 5720 5719 5718 5718 5718 5718 5718 5718 5718 5718 5717 5717 5716 5715 5714 5713 5713 5712 5711 5710 5710 5709 5708 5707 5706 5705 5703 5702
5681 5681 5682 5683 5685 5686 5688 5689 5691 5692 5692 5693 5694 5695 5696 5696 5696 5696 5695 5695 5696 5697 5698 5698 5699 5699 5700 5701 5703 5705 5706 5706 5707 5707 5707 5707 5707 5707 5708 5708 5709 5708 5707 5706 5704 5706 5708 5710 5711 5711 5711 5709 5708 5709 5709 5710 5709 5709 5708 5708 5708 5708 5708 5708 5708 5707 5707 5707 5706 5706 5705 5704 5704 5703 5702 5701 5701 5700 5699 5698 5697 5696 5695 5693 5692
5673 5673 5674 5675 5677 5678 5679 5680 5682 5682 5683 5683 5684 5686 5686 5686 5687 5687 5687 5687 5688 5689 5690 5691 5691 5691 5691 5692 5693 5695 5696 5697 5698 5698 5698 5698 5698 5699 5700 5700 5700 5699 5698 5696 5695 5696 5698 5699 5699 5699 5700 5699 5699 5699 5699 5699 5698 5698 5698 5698 5698 5697 5697 5697 5697 5697 5697 5697 5696 5695 5695 5694 5694 5693 5693 5692 5691 5690 5689 5688 5687 5686 5685 5683 5682